Inscriptos

800 Electronico
Fecha Serie Viento Presión Humedad Temperatura
16-09-2018 Final_A
Andarivel Nombre Dia Mes Año Equipo Mejor Marca
Alegre Diego Facundo 7 9 2000 CTSC - 1.53.90
Zavala Walter Hernan 28 1 1988 AAMTE - 1.53.99
Larroza Nahuel 18 5 1998 AAMTE - 1.54.29
Coronel Cristian 18 2 1997 CTSC - 1.55.10
Mendivil Estanislao 20 10 2000 QUIRO - 1.56.03
Molina Lucas 17 12 1995 CADAF - 1.56.42
Romero Matias 24 11 2001 JMCOR FMARP 1.56.99
Alvarez Emanuel Alejandro 8 12 2000 GCU - 1.56.99
Gauna Brian Miguel 15 2 1994 JMCOR FMARP 1.56.99
Salguero Fernando 10 5 1993 PGARI 1.58.99
Perez Fabian Enzo 28 12 1994 AAY - 1.58.99
Brian Alan Sasso 23 4 2000 MFV - 1.58.99
Reyes Martin Damian 17 4 1985 LFA - 1.59.99
Franco Miranda Gabriel 24 2 1995 CRCBA - 1.59.99
Velazquez Conrado Jonas 4 6 1991 EBFAM - 1.59.99
Fernandez Agustin Javier 26 10 2001 FTTAF - 2.00.99
Moyano Rodrigo Alejandro 24 8 2000 MDLDZ - 2.01.99
Furno Ivan 16 6 1997 FCMAX - 2.02.99
Lucas Guillermo 1 10 2000 MMFAM - 2.02.99
Paineo Emilio 3 2 1999 UAJGR - 2.02.99
Perotti Ariel Esteban 26 5 1995 CACHI - 2.02.99
Martinez Cereijo Nicolas 11 12 1998 GEFAM - 2.03.99
Montiel Isaac 23 9 1999 UAJGR - 2.03.99
Arroyo Santiago 10 1 1998 UAJGR - 2.03.99
Carrera Alan Gaston 8 7 1999 JMCOR FMARP 2.03.99
Niño Jorge Andres 11 2 1989 CSESL - 2.04.00
Meza Juarez Ezequiel 15 6 2001 CADAF - 2.04.09
Mamblona Thiago 7 3 2001 EMA - 2.04.99
Cardozo Francisco 15 5 1993 EMA - 2.04.99
Cilenti Kevin Maximiliano 6 10 1992 CASLA - 2.04.99
Cordoba Joaquin 19 11 2001 JMCOR FMARP 2.04.99
Gomez Alcides 9 2 1981 FTTAF - 2.04.99
Marcos Alanis 6 3 1993 FTTAF - 2.04.99
Ceccarossi Giuliano 6 6 2000 VYR ASA 2.05.99
Cristian Ramos 4 6 1999 MES - 2.05.99
Jharet Jesus Guarderes Ruiz 21 1 2001 LCFAM - 2.05.99
Kucher Hernan 24 4 1993 LFA - 2.05.99
Jeremias Villalba 16 12 1995 EMA - 2.06.99
Gonzalez Maffeo Maximiliano 24 6 1990 AAY - 2.07.99
Roblin Jeff 5 5 1993 AAPCH - 2.07.99
Garcia Mauro 25 8 1967 FTTAF - 2.09.99
Monzon Mario Juan Jesus 7 6 1984 FTTAF - 2.09.99
Balda Santiago 19 4 2000 EMCDC - 2.10.23
Servin Jorge Luis 26 5 1984 LFA - 2.12.99
Crego Franco Nahuel 17 11 1995 LCFAM - 2.13.99
Giuliani Agustin 12 7 1999 MLFAM - 2.13.99
Ferreyra Joaquin 26 6 2000 CMDB1 - 2.13.99
Rodriguez Matias 23 12 1997 LFA - 2.14.99
Sosa Diego Orlando 4 1 1987 AAMTE - 2.15.09
Reyes Gabriel 28 6 1991 LCFAM - 2.15.99
Rampulla Angel Francesco 4 7 1998 LISAL - 2.16.99
Diaz Lautaro 2 9 1999 MUAVE - 2.17.08
arce fernando 10 9 1980 AAPCH - 2.18.99
Alvarez Juan Jose 26 7 1996 AAMTE - 2.18.99
Scavino Ivan 7 12 1998 AAGAB - 2.19.86
Pablo Kalhofer 17 4 1976 LFA - 2.20.99
Lema Lautaro Augusto 25 9 1990 MUAVE - 2.22.85
Rodriguez Gonzalez Pedro Edgardo 7 9 1968 CARPF - 2.25.00
Blanco Octavio 3 12 2001 MUAVE - 2.26.99
Aguero Carabajal Agustin 17 6 2000 PGARI - 2.26.99
Montiveros Eliel 25 1 2001 MLFAM - 2.32.99
Rodriguez Arceri Facundo Matias 18 8 1988 LFA - 2.40.99